Location: Elaine Barite Prospect
(34.1431°N, 106.7922°W)
Time: 06:47:12
(UTC+00:00)

BREEZE-M DEB (TANK) - Pass Details

Date: 13 December 2025
Orbit: 316 x 11320 km, 49.7° (Epoch: 12 January)

Event Time Altitude Azimuth Distance (km) Brightness Sun altitude
Rises 12:32:42 0° 223° (SW) 5,646 8.2 -18.4°
Reaches altitude 10° 12:37:52 10° 221° (SW) 3,375 7.1 -17.4°
Maximum altitude 12:44:23 63° 141° (SE) 653 3.9 -16.1°
Drops below altitude 10° 12:47:09 10° 59° (ENE) 1,449 6.0 -15.6°
Sets 12:48:34 0° 55° (NE) 2,140 6.9 -15.3°
